ALOS-4 (DAICHI-4)

Last updated on Sun Apr 12 2026 00:02:36 GMT+0000 (Coordinated Universal Time)

1 60182U 24123A 26101.54014877 .00001326 00000+0 18445-3 0 9991 2 60182 97.9196 199.6626 0001607 100.2150 259.9243 14.79471023 96021
UTC large
Height (km)
Speed (km/s)
/
Latitude / Longitude
Inclination (degrees)
Orbital Period (minutes)
Azimuth
Elevation
Range (km)
Doppler Factor

Next 0 passes for location: London (51.5072 / 0.1276)

Sorry there are no passes over London.